Preview of NWS' New Version of Forecast
This preview is not operational and should not be used for support decisions.

Regional Weather Roundup (RWR)

Issued by National Weather Service (NWS)

                            
000
ASUS43 KLSX 232107
RWRMO 

WEATHER SUMMARY FOR MISSOURI
NATIONAL WEATHER SERVICE SPRINGFIELD MO
300 PM CST SAT FEB 23 2019

NOTE: "FAIR" INDICATES FEW OR NO CLOUDS BELOW 12,000 FEET WITH NO
       SIGNIFICANT WEATHER AND/OR OBSTRUCTIONS TO VISIBILITY.
       CURRENT SKY AND/OR WEATHER CONDITIONS ARE NOT AVAILABLE FOR
       CHILLICOTHE AND FARMINGTON.

MOZ001>031-035>038-043-044-053-054-232200-
...NORTHERN AND WESTERN MISSOURI...
  
CITY           SKY/WX    TMP DP  RH WIND       PRES   REMARKS
KANSAS CTY INT CLOUDY    39  38  96 SE7       29.43F VSB 1/2          
KANSAS C DTWN  CLOUDY    43  39  86 SE6       29.44F                  
LEE'S SUMMIT   FOG       43  43 100 SE8       29.44F VSB 1/4          
ST JOSEPH      LGT RAIN  35  31  85 NE5       29.46F VSB 1            
CHILLICOTHE      N/A     41  41 100 E8        29.46F                  
KIRKSVILLE     LGT RAIN  40  40 100 E10       29.49F FOG              
     
$$
MOZ066>068-077>081-088>096-101>105-232200-
...SOUTHWEST MISSOURI...
  
CITY           SKY/WX    TMP DP  RH WIND       PRES   REMARKS
SPRINGFIELD    MOSUNNY   61  52  72 S17G26    29.49F                  
JOPLIN         SUNNY     62  35  36 SW29G45   29.51S                  
BRANSON        MOSUNNY   64  46  52 SW16G30   29.56F                  
               
$$
MOZ032>034-039>042-045>050-055>058-069>072-232200-
...CENTRAL MISSOURI...  
  
CITY           SKY/WX    TMP DP  RH WIND       PRES   REMARKS
COLUMBIA       FOG       50  49  96 SE13      29.47F VSB 1/2          
JEFFERSON CITY CLOUDY    54  51  90 SE10      29.49F                  
ROLLA          CLOUDY    58  54  86 S12       29.52F                  
SEDALIA        CLOUDY    49  30  48 E7        29.47F HAZE             
WHITEMAN AFB   CLOUDY    48  48 100 S5        29.80S                  
WARRENSBURG    CLOUDY    45  45 100 E3        29.45F                  
OSAGE BEACH    CLOUDY    60  56  86 S12       29.50F                  
               
$$
MOZ051-052-059>065-232200-
...EAST CENTRAL MISSOURI...
  
CITY           SKY/WX    TMP DP  RH WIND       PRES   REMARKS
ST LOUIS INTL  FOG       52  51  97 SE14      29.59F VSB 1/2          
SPIRIT OF STL  CLOUDY    52  51  97 E6        29.56F FOG              
ST CHARLES     CLOUDY    51  51 100 SE9       29.57F FOG              
                   
$$
MOZ072>076-082>087-097>100-106>115-232200-
...SOUTH CENTRAL AND SOUTHEAST MISSOURI...
  
CITY           SKY/WX    TMP DP  RH WIND       PRES   REMARKS
CAPE GIRARDEAU CLOUDY    61  59  93 SE13      29.62F                  
FARMINGTON     CLOUDY    58  57  97 SE14      29.59F                  
POPLAR BLUFF   CLOUDY    61  60  97 SE12      29.62S                  
WEST PLAINS    CLOUDY    62  57  83 S10G17    29.57F                  
                                       
$$